Youngstown, OH

8:31 PM EST on February 22, 2018 (GMT -0500)
Youngstown-Warren Regional

Weather History for KYNG - September, 2014

Change the Weather History Date:

Monday, September 22, 2014

  Actual Average Record
Temperature  
Mean Temperature 49 °F 60 °F  
Max Temperature 57 °F 70 °F 92 °F (1931)
Min Temperature 40 °F 49 °F 32 °F (1999)
Degree Days  
Heating Degree Days 16 7  
Month to date heating degree days 108 82  
Since 1 July heating degree days 160 120  
Cooling Degree Days 0 1  
Month to date cooling degree days 53 44  
Year to date cooling degree days 530 530  
Moisture  
Dew Point 45 °F    
Average Humidity 77    
Maximum Humidity 92    
Minimum Humidity 61    
Precipitation  
Precipitation T in 0.13 in 1.19 in (1986)
Month to date precipitation 1.67 2.80  
Year to date precipitation 31.23 29.02  
Snow  
Snow 0.00 in 0.00 in - ()
Month to date snowfall 0.0 0.0  
Since 1 July snowfall 0.0 0.0  
Since 1 September snowfall 0.0 0.0  
Snow Depth 0.00 in    
Sea Level Pressure  
Sea Level Pressure 30.10 in    
Wind  
Wind Speed 7 mph (NW)    
Max Wind Speed 18 mph    
Max Gust Speed 24 mph    
Visibility 10 miles    
Events Rain    
T = Trace of Precipitation, MM = Missing Value Source: NWS Daily Summary

Daily Weather History Graph

Daily Weather History Graph

Search for Another Location

Airport or City:

Trip Planner

Search our weather history database for the weather conditions in past years. The results will help you decide how hot, cold, wet, or windy it might be!

Date:

Astronomy

Sep. 22, 2014 Rise Set
Actual Time 7:10 AM EDT 7:19 PM EDT
Civil Twilight 6:42 AM EDT 7:47 PM EDT
Nautical Twilight 6:10 AM EDT 8:19 PM EDT
Astronomical Twilight 5:37 AM EDT 8:52 PM EDT
Moon 5:36 AM EDT (9/22) 6:27 PM EDT (9/22)
Length of Visible Light 13h 04m
Length of Day
12h 09m
Waning Crescent, 2% of the Moon is Illuminated
Sep 22
Waning Crescent
Sep 24
New
Oct 1
First Quarter
Oct 8
Full
Oct 15
Last Quarter

Hourly Weather History & Observations

Time (EDT) Temp. Dew Point Humidity Pressure Visibility Wind Dir Wind Speed Gust Speed Precip Events Conditions
12:10 AM 53.6 °F 48.2 °F 82% 29.90 in 10.0 mi WNW 11.5 mph 21.9 mph N/A   Overcast
12:51 AM 53.1 °F 48.9 °F 86% 29.90 in 10.0 mi WNW 10.4 mph - N/A   Overcast
1:19 AM 51.8 °F 50.0 °F 94% 29.92 in 4.0 mi WNW 9.2 mph - 0.00 in Rain Light Rain
1:51 AM 52.0 °F 50.0 °F 93% 29.92 in 8.0 mi WNW 10.4 mph - 0.00 in Rain Light Rain
2:30 AM 51.8 °F 48.2 °F 88% 29.94 in 10.0 mi NW 15.0 mph 21.9 mph 0.00 in   Overcast
2:51 AM 52.0 °F 48.9 °F 89% 29.94 in 8.0 mi NW 12.7 mph 24.2 mph 0.00 in Rain Light Rain
3:35 AM 51.8 °F 48.2 °F 88% 29.95 in 10.0 mi NW 15.0 mph - 0.00 in   Overcast
3:51 AM 52.0 °F 48.0 °F 86% 29.94 in 10.0 mi NW 15.0 mph - 0.00 in   Overcast
4:51 AM 51.8 °F 46.4 °F 82% 29.97 in 10.0 mi NW 11.5 mph - N/A   Overcast
5:51 AM 51.1 °F 46.0 °F 83% 30.00 in 10.0 mi NW 12.7 mph 17.3 mph N/A   Overcast
6:51 AM 51.1 °F 45.0 °F 80% 30.04 in 10.0 mi WNW 9.2 mph - N/A   Overcast
7:51 AM 50.0 °F 44.6 °F 82% 30.07 in 10.0 mi WNW 8.1 mph - N/A   Overcast
8:51 AM 51.1 °F 46.0 °F 83% 30.09 in 10.0 mi WNW 6.9 mph - N/A   Overcast
9:51 AM 52.0 °F 44.1 °F 74% 30.12 in 10.0 mi WNW 8.1 mph - N/A   Overcast
10:51 AM 53.6 °F 44.6 °F 72% 30.14 in 10.0 mi NW 10.4 mph - N/A   Overcast
11:51 AM 53.1 °F 42.1 °F 66% 30.16 in 10.0 mi WNW 10.4 mph - N/A   Overcast
12:51 PM 53.6 °F 42.8 °F 67% 30.17 in 10.0 mi WNW 11.5 mph - N/A   Overcast
1:51 PM 54.0 °F 42.1 °F 64% 30.19 in 10.0 mi NNW 10.4 mph - N/A   Overcast
2:51 PM 55.4 °F 42.8 °F 63% 30.17 in 10.0 mi Variable 6.9 mph - N/A   Overcast
3:51 PM 55.0 °F 42.1 °F 62% 30.19 in 10.0 mi WNW 8.1 mph - N/A   Overcast
4:51 PM 54.0 °F 42.1 °F 64% 30.20 in 10.0 mi NW 11.5 mph - N/A   Overcast
5:51 PM 52.0 °F 42.1 °F 69% 30.21 in 10.0 mi WNW 8.1 mph - N/A   Overcast
6:51 PM 52.0 °F 44.1 °F 74% 30.22 in 10.0 mi NW 4.6 mph - N/A   Overcast
7:51 PM 50.0 °F 43.0 °F 77% 30.24 in 10.0 mi Calm Calm - N/A   Mostly Cloudy
8:51 PM 46.0 °F 43.0 °F 89% 30.27 in 10.0 mi Calm Calm - N/A   Scattered Clouds
9:51 PM 45.0 °F 43.0 °F 93% 30.28 in 10.0 mi Calm Calm - N/A   Partly Cloudy
10:51 PM 44.6 °F 42.8 °F 93% 30.27 in 10.0 mi Calm Calm - N/A   Partly Cloudy
11:51 PM 42.1 °F 39.9 °F 92% 30.30 in 10.0 mi Calm Calm - N/A   Clear